COSMOS 2535 DEB

基本信息
目录编号:
44641
目录名称:
COSMOS 2535 DEB
国际标识:
2019-039M
轨道中心:
EARTH
物体状态:
在轨
发射日期:
2019-07-10 UTC
轨道信息
数据来源: 国际轨道数据
星历时间: 2026-09-03T12:23:21+0800
半长轴: 6838.197km
偏心率: 0.0014482
轨道倾角: 97.546°
近地点辐角: 56.209°
升交点赤经: 321.824°
平近点角: 304.053°
近地点: 450.156km
远地点: 469.964km
周期: 93.793分钟
每日圈数: 15.352899
详细信息
发射场:
PKMTR
轨道高度:
LEO
数据来源:
AOE Integration Group
参考系:
TEME
时间系统:
UTC
历元类型:
SGP4
2D轨道图
3D轨道图
轨道高度分析图
轨道倾角分析图
轨道综合分析图
查看轨道综合分析图